Visibility
15.0 15.0 15.0 15.0 15.0 15.0 15.0 15.0 15.0 15.0 15.0 15.0 11.6 15.0 5.2 3.5 15.0 15.0 15.0 15.0 15.0 15.0 15.0 15.0 15.0 15.0 15.0 15.0 15.0 15.0 15.0 15.0 15.0 15.0 15.0 15.0 15.0 15.0 15.0 15.0 15.0 15.0 15.0
15.0 15.0 15.0 15.0 15.0 15.0 15.0 15.0 15.0 15.0 15.0 15.0 15.0 15.0 15.0 15.0 10.1 14.4 14.5 9.5 15.0 15.0 15.0 15.0 15.0 15.0 15.0 13.0 15.0 15.0 15.0 15.0 15.0 15.0 15.0 15.0 15.0 15.0 15.0 15.0 15.0 15.0 15.0
15.0 15.0 15.0 15.0 15.0 15.0 15.0 15.0 15.0 15.0 15.0 15.0 15.0 15.0 15.0 7.3 12.2 0.1 10.2 15.0 15.0 14.8 15.0 15.0 15.0 15.0 11.7 15.0 15.0 15.0 15.0 15.0 15.0 15.0 15.0 15.0 15.0 15.0 15.0 15.0 15.0 15.0 15.0
15.0 15.0 15.0 15.0 15.0 15.0 15.0 15.0 15.0 15.0 15.0 15.0 15.0 13.7 15.0 0.1 12.2 8.8 4.4 14.4 8.7 15.0 12.0 15.0 15.0 15.0 14.5 11.0 15.0 15.0 15.0 15.0 15.0 15.0 15.0 15.0 15.0 15.0 15.0 15.0 15.0 15.0 15.0
15.0 15.0 15.0 15.0 15.0 15.0 15.0 15.0 15.0 15.0 15.0 15.0 15.0 15.0 2.7 12.8 15.0 15.0 1.2 2.3 14.4 8.6 15.0 15.0 15.0 15.0 15.0 15.0 15.0 15.0 15.0 15.0 15.0 15.0 15.0 15.0 15.0 15.0 15.0 15.0 15.0 15.0 15.0
15.0 15.0 15.0 15.0 15.0 15.0 15.0 15.0 15.0 15.0 15.0 15.0 15.0 15.0 10.2 4.0 0.2 6.7 3.0 1.3 6.4 9.9 7.9 15.0 15.0 15.0 15.0 15.0 15.0 15.0 15.0 15.0 15.0 15.0 15.0 15.0 15.0 15.0 15.0 15.0 15.0 15.0 15.0
15.0 15.0 15.0 15.0 15.0 15.0 15.0 15.0 15.0 15.0 15.0 15.0 15.0 15.0 15.0 15.0 15.0 15.0 12.2 4.0 1.0 3.3 6.3 7.4 8.8 13.0 15.0 15.0 15.0 15.0 14.3 13.1 15.0 14.6 15.0 15.0 15.0 15.0 15.0 15.0 15.0 15.0 15.0
15.0 15.0 15.0 15.0 15.0 15.0 15.0 15.0 15.0 15.0 15.0 15.0 15.0 15.0 15.0 15.0 15.0 15.0 15.0 14.7 10.8 4.9 3.2 5.2 6.3 6.2 6.7 13.6 15.0 15.0 15.0 15.0 15.0 10.8 14.8 15.0 15.0 15.0 15.0 15.0 15.0 15.0 15.0
15.0 15.0 15.0 15.0 15.0 15.0 15.0 15.0 15.0 15.0 15.0 15.0 15.0 15.0 15.0 15.0 15.0 15.0 15.0 8.7 15.0 11.8 7.5 5.3 5.2 6.9 15.0 14.9 14.1 15.0 15.0 15.0 14.7 13.9 5.9 15.0 15.0 15.0 15.0 15.0 15.0 15.0 15.0
15.0 15.0 15.0 15.0 15.0 15.0 15.0 15.0 15.0 15.0 15.0 15.0 15.0 15.0 15.0 15.0 15.0 15.0 15.0 15.0 15.0 15.0 15.0 15.0 15.0 15.0 15.0 15.0 15.0 15.0 15.0 15.0 15.0 15.0 15.0 15.0 15.0 15.0 15.0 15.0 15.0 15.0 15.0
15.0 15.0 15.0 15.0 15.0 15.0 15.0 15.0 15.0 15.0 15.0 15.0 15.0 15.0 15.0 15.0 15.0 15.0 15.0 15.0 15.0 15.0 15.0 15.0 15.0 15.0 15.0 15.0 15.0 15.0 15.0 15.0 15.0 14.9 14.5 15.0 15.0 15.0 15.0 15.0 15.0 15.0 15.0
6.1 15.0 15.0 15.0 15.0 15.0 15.0 15.0 15.0 15.0 15.0 15.0 15.0 15.0 15.0 15.0 15.0 15.0 15.0 15.0 15.0 15.0 15.0 15.0 15.0 15.0 15.0 15.0 15.0 15.0 15.0 15.0 15.0 15.0 15.0 15.0 15.0 15.0 15.0 15.0 15.0 15.0 15.0
15.0 15.0 15.0 15.0 15.0 15.0 15.0 15.0 15.0 15.0 15.0 15.0 15.0 15.0 15.0 15.0 15.0 15.0 15.0 15.0 15.0 15.0 15.0 15.0 15.0 15.0 15.0 15.0 15.0 15.0 15.0 15.0 15.0 15.0 15.0 15.0 15.0 15.0 13.1 15.0 3.5 2.7 11.2
15.0 6.5 13.0 15.0 15.0 15.0 15.0 15.0 15.0 15.0 15.0 15.0 15.0 15.0 15.0 15.0 15.0 15.0 15.0 15.0 15.0 15.0 15.0 15.0 15.0 15.0 15.0 15.0 15.0 15.0 15.0 15.0 2.8 7.3 15.0 15.0 15.0 15.0 15.0 15.0 15.0 11.0 11.2
15.0 15.0 8.2 5.4 15.0 15.0 15.0 15.0 15.0 15.0 15.0 15.0 15.0 15.0 15.0 15.0 15.0 15.0 15.0 15.0 15.0 15.0 15.0 15.0 15.0 15.0 15.0 15.0 15.0 15.0 14.4 14.2 14.0 15.0 15.0 15.0 15.0 15.0 15.0 15.0 15.0 10.3 14.3
15.0 15.0 15.0 8.6 7.3 15.0 15.0 15.0 15.0 15.0 15.0 15.0 15.0 15.0 15.0 15.0 15.0 15.0 15.0 15.0 15.0 15.0 15.0 15.0 15.0 15.0 15.0 10.7 0.3 15.0 15.0 15.0 15.0 1.3 8.8 15.0 8.3 15.0 13.2 6.3 2.1 11.5 15.0
15.0 15.0 15.0 15.0 13.3 3.2 15.0 15.0 15.0 15.0 15.0 15.0 15.0 15.0 15.0 15.0 15.0 15.0 15.0 15.0 9.1 15.0 15.0 15.0 15.0 15.0 15.0 15.0 15.0 15.0 15.0 14.7 15.0 15.0 15.0 9.9 0.2 0.1 4.4 0.3 3.5 14.9 9.3
15.0 15.0 15.0 15.0 15.0 15.0 11.0 15.0 15.0 15.0 15.0 15.0 15.0 15.0 15.0 15.0 15.0 15.0 15.0 15.0 15.0 15.0 15.0 15.0 15.0 15.0 15.0 13.1 14.5 12.5 15.0 15.0 15.0 4.9 1.4 2.1 0.7 0.2 0.1 2.3 2.9 2.9 15.0
15.0 15.0 15.0 15.0 15.0 12.1 15.0 1.4 2.7 10.1 15.0 15.0 15.0 15.0 15.0 15.0 15.0 15.0 15.0 15.0 15.0 15.0 15.0 15.0 15.0 15.0 8.8 11.4 15.0 15.0 15.0 1.1 0.6 1.8 1.3 1.6 0.3 0.8 8.4 15.0 15.0 15.0 15.0
15.0 15.0 15.0 15.0 15.0 15.0 14.9 15.0 15.0 2.7 15.0 15.0 15.0 15.0 15.0 15.0 15.0 15.0 14.3 15.0 15.0 13.0 14.4 6.4 11.0 3.8 6.3 7.2 11.6 11.9 9.7 1.3 0.8 1.0 0.9 3.8 15.0 15.0 15.0 15.0 15.0 11.3 15.0
15.0 15.0 15.0 15.0 15.0 5.5 13.6 9.8 11.3 0.6 15.0 7.8 9.1 13.1 15.0 15.0 13.4 13.4 14.7 14.1 3.9 2.5 2.2 2.5 6.7 2.2 6.5 6.8 5.7 7.7 15.0 15.0 7.2 7.1 15.0 15.0 15.0 15.0 15.0 15.0 15.0 15.0 15.0
15.0 15.0 15.0 15.0 15.0 15.0 9.0 3.4 0.2 13.6 5.9 11.2 4.8 3.2 15.0 15.0 13.0 15.0 15.0 15.0 15.0 7.2 3.9 2.1 1.2 3.1 10.1 12.9 15.0 15.0 15.0 15.0 15.0 15.0 15.0 15.0 15.0 15.0 15.0 15.0 15.0 15.0 15.0
15.0 15.0 15.0 15.0 15.0 15.0 15.0 1.4 5.9 8.4 5.7 6.3 5.6 7.8 8.9 7.4 12.4 4.4 15.0 15.0 11.4 3.6 4.0 0.8 0.7 1.0 9.2 13.8 15.0 15.0 15.0 15.0 15.0 15.0 15.0 15.0 15.0 15.0 15.0 15.0 15.0 15.0 15.0
15.0 15.0 15.0 15.0 15.0 15.0 15.0 15.0 15.0 15.0 15.0 13.6 6.8 14.2 3.9 14.4 15.0 13.0 3.9 1.6 1.8 1.2 0.8 1.8 2.3 13.1 13.8 15.0 7.6 5.0 15.0 15.0 15.0 15.0 15.0 15.0 15.0 15.0 15.0 15.0 15.0 15.0 15.0
15.0 15.0 15.0 15.0 15.0 15.0 15.0 15.0 15.0 15.0 13.6 9.7 10.2 12.3 3.6 2.9 0.8 0.5 0.6 0.5 0.2 0.4 0.2 0.1 2.7 13.4 3.7 2.8 1.7 2.1 15.0 15.0 15.0 15.0 15.0 15.0 15.0 15.0 15.0 15.0 15.0 15.0 15.0
15.0 14.0 14.3 15.0 15.0 15.0 15.0 15.0 15.0 9.3 1.6 1.3 0.7 0.8 0.8 0.8 3.2 1.3 0.1 0.1 0.1 0.1 0.2 0.2 0.5 1.8 4.0 3.0 5.6 12.3 15.0 15.0 15.0 15.0 15.0 15.0 15.0 15.0 15.0 15.0 15.0 15.0 15.0